Location: STAR School
(35.3054°N, 111.2976°W)
Time: 14:06:35
(UTC-07:00)

Tiangong 2 - Visible Passes

Search period start: 19 February 2019 00:00
Search period end: 01 March 2019 00:00
Orbit: 381 x 390 km, 42.8° (Epoch: 19 February)

Date Brightness Start Highest point End Pass type
(mag) Time Alt. Az. Time Alt. Az. Time Alt. Az.
19 Feb 2.2 19:55:40 10° WNW 19:58:11 41° WSW 19:58:11 41° WSW visible
20 Feb 1.0 18:56:21 10° WNW 18:59:30 88° NNE 19:02:12 13° ESE visible
21 Feb 3.2 19:34:16 10° W 19:36:51 23° SW 19:38:39 15° S visible
22 Feb 2.1 18:34:40 10° WNW 18:37:42 46° SSW 18:40:44 10° SE visible
23 Feb 4.1 19:13:38 10° WSW 19:14:53 12° SW 19:16:07 10° SSW visible
